CYGFM08

Last updated on Sun Jul 06 2025 00:02:20 GMT+0000 (Coordinated Universal Time)

1 41888U 16078E 25186.58288864 .00012278 00000+0 27511-3 0 9990 2 41888 34.9480 355.3460 0009955 140.3091 219.8359 15.42522255475142
UTC large
Height (km)
Speed (km/s)
/
Latitude / Longitude
Inclination (degrees)
Orbital Period (minutes)
Azimuth
Elevation
Range (km)
Doppler Factor

Next 0 passes for location: London (51.5072 / 0.1276)

Sorry there are no passes over London.